Tracking 28790 objects as of 19-Apr-2024
HD Live streaming from Space Station
objects crossing your sky now

COSMOS 2251 DEB

Track COSMOS 2251 DEB now!
10-day predictions


NORAD ID: 34424
Int'l Code: 1993-036RR
Perigee: 488.5 km
Apogee: 506.3 km
Inclination: 74.0 °
Period: 94.4 minutes
Semi major axis: 6868 km
RCS: 0.023 m2 (small)
Launch date: June 16, 1993
Source: Commonwealth of Independent States (former USSR) (CIS)
Launch site: PLESETSK MISSILE AND SPACE COMPLEX (PKMTR)

Note: This is SATELLITE DEBRIS
Your satellite tracking list
Your tracking list is empty




NASA's NSSDC Master Catalog

Two Line Element Set (TLE):
1 34424U 93036RR  24110.15390542  .00221390  00000-0  85441-2 0  9996
2 34424  74.0029 119.3170 0012939 354.1043  80.0756 15.25179695811519
Source of the keplerian elements: AFSPC